Location: Moscow Pond
(43.6842°N, 73.2366°W)
Time: 06:17:01
(UTC+00:00)

ATLAS 3B R/B - Pass Details

Date: 08 November 2025
Orbit: 935 x 1258 km, 63.8° (Epoch: 06 December)

Event Time Altitude Azimuth Distance (km) Brightness Sun altitude
Rises 10:44:49 0° 190° (S) 3,967 5.7 -10.0°
Reaches altitude 10° 10:47:33 10° 184° (S) 3,055 5.2 -9.5°
Maximum altitude 10:54:28 45° 114° (ESE) 1,612 4.3 -8.3°
Drops below altitude 10° 11:01:45 10° 46° (NE) 3,230 5.6 -7.1°
Sets 11:04:43 0° 40° (NE) 4,214 6.2 -6.6°
